[[{"header":{"parameterUnit":"m.s-1","parameterCategory":1,"la1":30.2991,"la2":30.254,"lo1":-89.0895,"lo2":-89.0444,"dy":0.0017,"dx":0.0017,"nx":28,"ny":28,"refTime":"2024-08-11T21:00:00:Z","depth":0,"parameterNumber":2,"parameterNumberName":"U-component_of_WINDS"},"data":[0,0,0,0,0,0,0,0,0,0,0,0,0,0,0,0,0,0,0,0,0,0,0,0,0,0,0,0,0,0,0,0,0,0,0,0,0,0,0,0,0,0,0,0,0,0,0,0,0,0,0,0,0,0,0,0,0,0,1.5161,1.5163,0,1.5356,1.5358,1.536,1.5419,1.5418,1.5417,1.5416,1.5617,1.5623,1.563,0,0,0,0,0,0,0,0,0,0,0,0,0,1.484,1.4845,1.516,1.5163,1.5165,1.5355,1.5358,1.5361,1.5419,1.5418,1.5417,1.5416,1.5615,1.5623,1.563,0,0,0,0,0,0,0,0,0,0,0,0,0,1.5001,1.4847,1.516,1.5217,1.5224,1.5355,1.5358,1.5361,1.5419,1.5418,1.5416,1.5415,1.5613,1.5622,1.5631,1.5719,0,0,1.566,1.5664,0,0,0,0,0,0,0,0,1.4992,1.5013,1.5207,1.5214,1.5222,1.5361,1.5319,1.5481,1.542,1.5345,1.5416,1.5414,1.5533,1.5549,1.5589,1.5728,1.5737,1.5661,1.5666,1.567,1.5673,0,0,0,0,0,0,0,1.4981,1.5005,1.5238,1.5209,1.5219,1.5234,1.5255,1.535,1.5445,1.5352,1.5357,1.5379,1.5537,1.558,1.5594,1.574,1.566,1.5669,1.5675,1.5678,1.596,1.5962,0,0,0,0,0,0,1.496,1.4995,1.5231,1.5243,1.5101,1.5241,1.5265,1.5318,1.5444,1.5462,1.538,1.5381,1.5565,1.5583,1.5602,1.5712,1.567,1.5679,1.5685,1.5958,1.596,1.5962,0,0,0,0,0,0,1.4952,1.498,1.5224,1.5121,1.5153,1.5248,1.5307,1.5323,1.5365,1.5466,1.5483,1.5406,1.5564,1.5588,1.5689,1.572,1.5683,1.5692,1.5956,1.5959,1.5961,1.5933,0,0,0,0,0,0,1.4943,1.4977,1.5011,1.5121,1.5158,1.5307,1.5309,1.5328,1.5381,1.5384,1.5494,1.5511,1.5565,1.5675,1.5698,1.5732,1.5699,1.5954,1.5957,1.5961,1.5932,1.5935,1.5937,0,0,0,0,0,1.4931,1.4996,1.5012,1.5041,1.5202,1.5309,1.533,1.539,1.5383,1.5418,1.5483,1.5508,1.5713,1.5684,1.5712,1.5748,1.5952,1.5956,1.596,1.5931,1.5934,1.5937,0,0,0,0,0,0,1.4887,1.5011,1.5031,1.5133,1.521,1.5318,1.5364,1.5392,1.5472,1.5472,1.5543,1.5568,1.5663,1.5716,1.5682,1.584,1.5833,1.5843,1.5801,1.5806,1.5808,1.5793,1.5707,0,0,0,0,0,1.4889,1.4965,1.5069,1.5149,1.5187,1.5269,1.5317,1.5357,1.5439,1.5472,1.5544,1.5624,1.5706,1.5759,1.584,1.594,1.5965,1.5979,1.5982,1.5983,1.5991,1.6047,1.6054,1.5976,1.5976,1.5976,0,0,1.4894,1.4971,1.5015,1.5142,1.5206,1.5283,1.5296,1.5377,1.5435,1.5485,1.5584,1.5639,1.5733,1.5833,1.5881,1.5881,1.6018,1.5989,1.5989,1.5996,1.6052,1.6059,1.6066,1.5979,1.5978,1.5978,0,0,1.4943,1.5009,1.5082,1.5146,1.5243,1.5298,1.5315,1.542,1.5459,1.5559,1.5598,1.5669,1.5809,1.5874,1.5925,1.5998,1.6024,1.6023,1.6037,1.6091,1.6097,1.6103,1.6128,1.6137,1.603,1.603,1.603,0,1.4937,1.5054,1.5117,1.5196,1.525,1.5299,1.5374,1.5434,1.5552,1.5589,1.5586,1.5763,1.583,1.5946,1.5964,1.6004,1.6026,1.601,1.6091,1.6097,1.6104,1.6129,1.6138,1.6029,1.6029,1.6029,1.603,0,1.5042,1.5122,1.517,1.5283,1.5343,1.542,1.5494,1.5548,1.5582,1.5636,1.5738,1.582,1.5918,1.5949,1.5984,1.607,1.6067,1.6077,1.6071,1.6109,1.6134,1.6144,1.6028,1.6028,1.6029,1.6029,0,0,1.5067,1.5213,1.523,1.5281,1.5392,1.5456,1.5535,1.5631,1.5675,1.5756,1.5823,1.5941,1.5951,1.6009,1.6052,1.6099,1.6151,1.6104,1.6107,1.6109,1.6251,1.6242,1.6252,1.6169,1.6171,1.6173,1.6243,0,1.5129,1.5271,1.533,1.5445,1.552,1.5568,1.5637,1.5712,1.5765,1.5837,1.5896,1.5978,1.5985,1.6021,1.607,1.6134,1.6181,1.613,1.6233,1.6236,1.6207,1.6265,1.6257,1.6318,1.6253,1.6255,1.6256,0,1.522,1.53,1.5422,1.5524,1.5558,1.5618,1.5711,1.5779,1.5866,1.5901,1.5966,1.6006,1.6091,1.608,1.6198,1.6162,1.6208,1.6246,1.625,1.6262,1.6248,1.6278,1.634,1.6348,1.6272,1.6271,1.627,0,1.5225,1.5364,1.5455,1.5498,1.5619,1.566,1.5712,1.5798,1.5852,1.5933,1.5968,1.6059,1.6108,1.6177,1.624,1.6227,1.6352,1.6347,1.6384,1.6382,1.6407,1.6405,1.6477,1.6438,1.6438,1.6437,1.6437,0,1.5287,1.536,1.5459,1.5515,1.5598,1.5665,1.5745,1.5801,1.5877,1.5944,1.5992,1.6054,1.6135,1.6208,1.6258,1.6348,1.637,1.6401,1.6413,1.6396,1.6392,1.6427,1.6424,1.644,1.6439,1.6439,1.6438,0,1.5306,1.5376,1.5478,1.5584,1.5612,1.5669,1.576,1.5816,1.5872,1.5957,1.5981,1.6068,1.6156,1.6226,1.6342,1.6376,1.647,1.6484,1.644,1.6447,1.6479,1.6475,1.6575,1.6592,1.6542,1.6542,1.6543,0,1.5341,1.5398,1.551,1.5559,1.5611,1.5688,1.5744,1.5812,1.5868,1.5971,1.6015,1.6106,1.6183,1.6322,1.6396,1.6485,1.6501,1.653,1.6515,1.6496,1.6501,1.6497,1.6502,1.6532,1.6532,1.6532,1.6532,0,1.5395,1.5426,1.5504,1.5594,1.5658,1.5732,1.5807,1.5844,1.5927,1.5987,1.6078,1.6137,1.6255,1.6345,1.6442,1.6496,1.6528,1.6537,1.655,1.6533,1.6505,1.652,1.6444,1.6534,1.6534,1.6534,1.6533,1.6533,1.5423,1.5476,1.5563,1.5648,1.5711,1.578,1.5838,1.5901,1.5978,1.6079,1.6115,1.6208,1.6294,1.6426,1.6481,1.6556,1.6558,1.6577,1.6582,1.6585,1.6583,1.6493,1.6574,1.6574,1.6574,1.6574,1.6574,0,1.5479,1.5537,1.5615,1.5718,1.5785,1.5809,1.5893,1.5947,1.6029,1.6106,1.618,1.6285,1.6373,1.6453,1.6545,1.6589,1.6606,1.6611,1.6608,1.662,1.6576,1.6555,1.6596,1.6596,1.6596,1.6596,1.6596,1.6596,1.5515,1.5606,1.5648,1.577,1.5829,1.592,1.5966,1.603,1.6092,1.6206,1.6279,1.6331,1.641,1.6509,1.659,1.6612,1.6643,1.6644,1.667,1.6627,1.6623,1.662,1.6601,1.6651,1.6651,1.6708,1.6708,1.6709]},{"header":{"parameterUnit":"m.s-1","parameterCategory":1,"la1":30.2991,"la2":30.254,"lo1":-89.0895,"lo2":-89.0444,"dy":0.0017,"dx":0.0017,"nx":28,"ny":28,"refTime":"2024-08-11T21:00:00:Z","depth":0,"parameterNumber":3,"parameterNumberName":"V-component_of_WINDS"},"data":[0,0,0,0,0,0,0,0,0,0,0,0,0,0,0,0,0,0,0,0,0,0,0,0,0,0,0,0,0,0,0,0,0,0,0,0,0,0,0,0,0,0,0,0,0,0,0,0,0,0,0,0,0,0,0,0,0,0,3.7771,3.7771,0,3.7722,3.7721,3.772,3.7635,3.7633,3.7632,3.763,3.758,3.7581,3.7581,0,0,0,0,0,0,0,0,0,0,0,0,0,3.7794,3.7794,3.7772,3.7771,3.777,3.7722,3.7721,3.772,3.7635,3.7633,3.7631,3.763,3.758,3.758,3.7581,0,0,0,0,0,0,0,0,0,0,0,0,0,3.7768,3.7794,3.7772,3.7722,3.7717,3.7722,3.7721,3.772,3.7636,3.7633,3.7631,3.7629,3.758,3.758,3.7581,3.763,0,0,3.7581,3.7582,0,0,0,0,0,0,0,0,3.777,3.7767,3.773,3.7725,3.772,3.7682,3.771,3.769,3.7636,3.7667,3.763,3.7628,3.7616,3.7613,3.7609,3.7628,3.7626,3.7581,3.7582,3.7582,3.7582,0,0,0,0,0,0,0,3.7772,3.7769,3.7752,3.7729,3.7723,3.7702,3.7696,3.7706,3.7656,3.7664,3.7658,3.7653,3.7613,3.7609,3.7607,3.7625,3.7581,3.7582,3.7582,3.7582,3.768,3.7682,0,0,0,0,0,0,3.7781,3.7771,3.7753,3.775,3.7739,3.7704,3.7697,3.7697,3.7655,3.7647,3.7655,3.7649,3.761,3.7607,3.7605,3.7659,3.7582,3.7582,3.7582,3.7678,3.7681,3.7683,0,0,0,0,0,0,3.7781,3.778,3.7755,3.7759,3.7754,3.7706,3.7707,3.7697,3.7693,3.7648,3.7639,3.766,3.7608,3.7605,3.7624,3.7656,3.7582,3.7582,3.7675,3.7678,3.7682,3.7769,0,0,0,0,0,0,3.7782,3.7781,3.7799,3.776,3.7754,3.7775,3.7709,3.7698,3.7693,3.7685,3.7651,3.7643,3.7606,3.7624,3.7624,3.7655,3.7582,3.7672,3.7676,3.7681,3.7763,3.7775,3.7785,0,0,0,0,0,3.7783,3.7826,3.78,3.7799,3.7776,3.7777,3.7774,3.773,3.7697,3.7714,3.7685,3.7644,3.7653,3.7627,3.7626,3.7658,3.7669,3.7675,3.768,3.7758,3.7773,3.7785,0,0,0,0,0,0,3.787,3.782,3.7791,3.7822,3.7804,3.7763,3.7784,3.7748,3.774,3.7732,3.7679,3.7672,3.7698,3.768,3.7652,3.7703,3.7655,3.766,3.7714,3.7727,3.7739,3.7742,3.7583,0,0,0,0,0,3.7893,3.7898,3.7854,3.7885,3.7878,3.7833,3.7832,3.7799,3.7779,3.7772,3.7744,3.7726,3.7725,3.7725,3.7722,3.776,3.7751,3.7781,3.7793,3.7802,3.7808,3.7825,3.7838,3.7701,3.7701,3.7701,0,0,3.794,3.7913,3.7919,3.7902,3.7885,3.7891,3.7827,3.7837,3.7841,3.7773,3.7789,3.7769,3.7745,3.7774,3.7785,3.776,3.7843,3.7809,3.7817,3.7817,3.7833,3.7846,3.7857,3.7705,3.7704,3.7704,0,0,3.8028,3.8009,3.8033,3.8016,3.7991,3.796,3.7966,3.793,3.7913,3.7929,3.7878,3.7882,3.7881,3.7866,3.7858,3.7941,3.7902,3.7941,3.8,3.8018,3.8029,3.8038,3.8067,3.8078,3.7947,3.7947,3.7947,0,3.809,3.8097,3.805,3.8062,3.8055,3.7994,3.8017,3.8004,3.7979,3.7976,3.7948,3.7945,3.7925,3.7949,3.7969,3.7965,3.7969,3.7945,3.8031,3.804,3.8048,3.8075,3.8086,3.7952,3.7951,3.7951,3.795,0,3.8174,3.818,3.8202,3.8178,3.8175,3.8193,3.8147,3.8149,3.8117,3.809,3.8106,3.808,3.8069,3.8073,3.8042,3.8092,3.8077,3.8041,3.7991,3.8067,3.8091,3.8101,3.7959,3.7957,3.7956,3.7954,0,0,3.8316,3.8265,3.8274,3.8262,3.8229,3.8233,3.8248,3.8237,3.8239,3.8224,3.8235,3.8235,3.8202,3.8193,3.816,3.8176,3.8242,3.8138,3.8136,3.8157,3.8295,3.8322,3.8334,3.8216,3.8218,3.8219,3.8296,0,3.8397,3.8419,3.8376,3.8409,3.8413,3.8355,3.8368,3.8349,3.8324,3.8324,3.8296,3.8297,3.8253,3.8247,3.826,3.8231,3.8269,3.8225,3.8226,3.8226,3.8233,3.8347,3.8376,3.845,3.8306,3.8307,3.8308,0,3.8494,3.8483,3.8516,3.8481,3.8481,3.8493,3.848,3.8481,3.8458,3.8438,3.8429,3.8389,3.8401,3.8354,3.8369,3.8341,3.8338,3.8324,3.8326,3.8324,3.8272,3.8348,3.8472,3.8484,3.8323,3.8322,3.8321,0,3.8593,3.8587,3.8605,3.8597,3.8556,3.8566,3.855,3.8525,3.8521,3.8509,3.8506,3.8496,3.8491,3.8484,3.8443,3.8412,3.8463,3.8412,3.8447,3.8448,3.846,3.846,3.8586,3.846,3.846,3.8459,3.8459,0,3.8688,3.871,3.8649,3.8661,3.8684,3.8635,3.8659,3.8637,3.8615,3.8621,3.857,3.8577,3.8522,3.8523,3.8491,3.8509,3.8507,3.8491,3.8482,3.8495,3.8497,3.8493,3.8487,3.8462,3.8462,3.8461,3.846,0,3.8802,3.8762,3.8779,3.8739,3.8729,3.8748,3.8713,3.8722,3.8694,3.8702,3.8701,3.8656,3.8654,3.8613,3.8602,3.8581,3.8611,3.8593,3.8619,3.8613,3.865,3.8647,3.8777,3.8791,3.8657,3.8658,3.8659,0,3.8865,3.8881,3.8842,3.8842,3.8828,3.8829,3.8825,3.8777,3.8774,3.875,3.8761,3.8755,3.8748,3.8748,3.8714,3.8706,3.8687,3.8733,3.8685,3.8698,3.8687,3.8687,3.8688,3.8743,3.8745,3.8746,3.8747,0,3.898,3.896,3.8955,3.8944,3.894,3.8929,3.8915,3.8918,3.8865,3.8865,3.8862,3.8856,3.8845,3.884,3.8825,3.8808,3.8769,3.8763,3.877,3.8784,3.8798,3.879,3.8646,3.876,3.8759,3.8758,3.8757,3.8757,3.907,3.9081,3.9056,3.9052,3.9036,3.9024,3.903,3.9002,3.8999,3.8986,3.8958,3.896,3.8936,3.8913,3.8899,3.8899,3.8876,3.8887,3.8889,3.8893,3.89,3.8798,3.8896,3.8896,3.8896,3.8895,3.8895,0,3.9182,3.9163,3.9161,3.9142,3.9139,3.9103,3.9085,3.9085,3.9087,3.9068,3.9062,3.9059,3.9053,3.9019,3.9009,3.9016,3.8998,3.9015,3.9014,3.9011,3.8922,3.8916,3.903,3.903,3.903,3.903,3.903,3.903,3.9241,3.9257,3.9234,3.9242,3.9222,3.9223,3.9216,3.9204,3.9189,3.9188,3.9183,3.9161,3.9135,3.9123,3.9117,3.9107,3.9105,3.9129,3.9113,3.903,3.9017,3.9005,3.8999,3.9129,3.9129,3.9202,3.9203,3.9203]}]]